Rugby, ND

12:09 PM CST on November 20, 2017 (GMT -0600)
Rugby Municipal

Weather History for KRUG - January, 2013

Change the Weather History Date:

Thursday, January 31, 2013

  Actual Average Record
Temperature  
Mean Temperature -20 °F -  
Max Temperature -14 °F 17 °F 41 °F (1987)
Min Temperature -25 °F -1 °F -32 °F (1982)
Degree Days  
Heating Degree Days 84    
Moisture  
Dew Point -25 °F    
Average Humidity 73    
Maximum Humidity 84    
Minimum Humidity 63    
Precipitation  
Precipitation 0.01 in - - ()
Sea Level Pressure  
Sea Level Pressure 30.18 in    
Wind  
Wind Speed 19 mph (WNW)    
Max Wind Speed 24 mph    
Max Gust Speed 30 mph    
Visibility 8 miles    
Events Rain , Snow    
Averages and records for this station are not official NWS values.
T = Trace of Precipitation, MM = Missing Value Source: NWS Daily Summary

Daily Weather History Graph

Daily Weather History Graph

Search for Another Location

Airport or City:

Trip Planner

Search our weather history database for the weather conditions in past years. The results will help you decide how hot, cold, wet, or windy it might be!

Date:

Astronomy

Jan. 31, 2013 Rise Set
Actual Time 8:09 AM CST 5:38 PM CST
Civil Twilight 7:36 AM CST 6:11 PM CST
Nautical Twilight 6:58 AM CST 6:49 PM CST
Astronomical Twilight 6:21 AM CST 7:25 PM CST
Moon 11:12 PM CST (1/31) 9:43 AM CST (1/31)
Length of Visible Light 10h 35m
Length of Day
9h 28m
Waning Gibbous, 79% of the Moon is Illuminated
Jan 31
Waning Gibbous
Feb 3
Last Quarter
Feb 10
New
Feb 17
First Quarter
Feb 25
Full

Hourly Weather History & Observations

Time (CST) Temp. Windchill Dew Point Humidity Pressure Visibility Wind Dir Wind Speed Gust Speed Precip Events Conditions
12:15 AM -18.4 °F -47.1 °F -23.8 °F 76% 29.99 in 5.0 mi NW 21.9 mph - N/A Snow Light Snow
12:35 AM -18.4 °F -46.5 °F -23.8 °F 76% 30.00 in 3.0 mi NW 20.7 mph - N/A Snow Light Snow
12:55 AM -18.4 °F -45.9 °F -23.8 °F 76% 30.01 in 4.0 mi NW 19.6 mph 24.2 mph N/A Snow Light Snow
1:15 AM -16.6 °F -43.5 °F -22.0 °F 76% 30.01 in 2.0 mi NW 19.6 mph - N/A Snow Light Snow
1:35 AM -16.6 °F -42.9 °F -22.0 °F 76% 30.02 in 3.0 mi NW 18.4 mph - 0.01 in Snow Light Snow
1:55 AM -16.6 °F -42.9 °F -22.0 °F 76% 30.03 in 5.0 mi WNW 18.4 mph - 0.01 in   Haze
2:15 AM -16.6 °F -44.1 °F -22.0 °F 76% 30.04 in 3.0 mi NW 20.7 mph 26.5 mph N/A   Haze
2:35 AM -14.8 °F -41.8 °F -20.2 °F 77% 30.05 in 2.5 mi NW 20.7 mph - N/A Snow Light Snow
2:55 AM -16.6 °F -44.1 °F -20.2 °F 84% 30.06 in 2.5 mi NW 20.7 mph 24.2 mph N/A Snow Light Snow
3:15 AM -16.6 °F -44.1 °F -22.0 °F 76% 30.07 in 2.5 mi NW 20.7 mph - N/A   Haze
3:35 AM -16.6 °F -44.8 °F -22.0 °F 76% 30.07 in 2.5 mi NW 21.9 mph 26.5 mph N/A   Haze
3:55 AM -16.6 °F -43.5 °F -22.0 °F 76% 30.08 in 4.0 mi NW 19.6 mph - N/A   Haze
4:15 AM -16.6 °F -42.1 °F -22.0 °F 76% 30.09 in 9.0 mi NW 17.3 mph - N/A   Overcast
4:35 AM -16.6 °F -43.5 °F -22.0 °F 76% 30.10 in 4.0 mi NW 19.6 mph - N/A   Haze
4:55 AM -16.6 °F -43.5 °F -22.0 °F 76% 30.11 in 5.0 mi NW 19.6 mph 25.3 mph N/A   Haze
5:15 AM -16.6 °F -44.1 °F -22.0 °F 76% 30.12 in 4.0 mi NW 20.7 mph - N/A   Haze
5:35 AM -16.6 °F -44.1 °F -22.0 °F 76% 30.13 in 4.0 mi NW 20.7 mph 25.3 mph N/A   Haze
5:55 AM -16.6 °F -45.3 °F -23.8 °F 70% 30.13 in 5.0 mi NW 23.0 mph 26.5 mph N/A   Haze
6:15 AM -18.4 °F -46.5 °F -23.8 °F 76% 30.14 in 2.0 mi NW 20.7 mph - N/A Rain Light Freezing Rain
6:35 AM -18.4 °F -48.3 °F -25.6 °F 70% 30.15 in 2.0 mi NW 24.2 mph 29.9 mph N/A Snow Light Snow
6:55 AM -18.4 °F -47.7 °F -25.6 °F 70% 30.16 in 7.0 mi NW 23.0 mph 27.6 mph N/A   Unknown
7:15 AM -20.2 °F -49.5 °F -25.6 °F 76% 30.17 in 10.0 mi NW 21.9 mph 25.3 mph N/A   Clear
7:35 AM -20.2 °F -50.1 °F -27.4 °F 69% 30.18 in 10.0 mi NW 23.0 mph - N/A   Unknown
7:55 AM -20.2 °F -46.8 °F -27.4 °F 69% 30.19 in 10.0 mi NW 17.3 mph - N/A   Scattered Clouds
8:15 AM -22.0 °F -49.9 °F -27.4 °F 76% 30.20 in 9.0 mi NW 18.4 mph - N/A   Partly Cloudy
8:35 AM -22.0 °F -50.6 °F -27.4 °F 76% 30.21 in 5.0 mi NW 19.6 mph 24.2 mph N/A   Haze
8:55 AM -22.0 °F -51.3 °F -27.4 °F 76% 30.21 in 6.0 mi NW 20.7 mph - N/A   Haze
9:15 AM -20.2 °F -49.5 °F -27.4 °F 69% 30.22 in 10.0 mi NW 21.9 mph - N/A   Unknown
9:35 AM -20.2 °F -48.9 °F -27.4 °F 69% 30.23 in 7.0 mi NW 20.7 mph 27.6 mph N/A   Clear
9:55 AM -20.2 °F -50.1 °F -27.4 °F 69% 30.23 in 10.0 mi NW 23.0 mph 27.6 mph N/A   Unknown
10:15 AM -20.2 °F -50.7 °F -27.4 °F 69% 30.24 in 10.0 mi NW 24.2 mph - N/A   Unknown
10:35 AM -20.2 °F -50.1 °F -27.4 °F 69% 30.24 in 10.0 mi NW 23.0 mph 27.6 mph N/A   Unknown
10:55 AM -20.2 °F -49.5 °F -27.4 °F 69% 30.25 in 10.0 mi NW 21.9 mph 27.6 mph N/A   Partly Cloudy
11:15 AM -20.2 °F -50.1 °F -27.4 °F 69% 30.26 in 10.0 mi NW 23.0 mph 27.6 mph N/A   Partly Cloudy
11:35 AM -18.4 °F -46.5 °F -27.4 °F 63% 30.26 in 10.0 mi NW 20.7 mph 27.6 mph N/A   Clear
11:55 AM -18.4 °F -47.7 °F -25.6 °F 70% 30.26 in 9.0 mi WNW 23.0 mph - N/A   Partly Cloudy
12:15 PM -18.4 °F -47.7 °F -25.6 °F 70% 30.25 in 10.0 mi WNW 23.0 mph 27.6 mph N/A   Partly Cloudy
12:35 PM -18.4 °F -47.1 °F -25.6 °F 70% 30.25 in 10.0 mi NW 21.9 mph - N/A   Partly Cloudy
12:55 PM -18.4 °F -47.7 °F -25.6 °F 70% 30.25 in 10.0 mi WNW 23.0 mph - N/A   Partly Cloudy
1:15 PM -16.6 °F -43.5 °F -25.6 °F 64% 30.25 in 10.0 mi WNW 19.6 mph - N/A   Clear
1:35 PM -16.6 °F -44.8 °F -25.6 °F 64% 30.25 in 10.0 mi WNW 21.9 mph 26.5 mph N/A   Clear
1:55 PM -16.6 °F -43.5 °F -25.6 °F 64% 30.25 in 10.0 mi NW 19.6 mph - N/A   Clear
2:15 PM -16.6 °F -43.5 °F -23.8 °F 70% 30.24 in 10.0 mi NW 19.6 mph - N/A   Clear
2:35 PM -16.6 °F -42.9 °F -23.8 °F 70% 30.24 in 10.0 mi NW 18.4 mph - N/A   Clear
2:55 PM -16.6 °F -41.4 °F -23.8 °F 70% 30.24 in 10.0 mi NW 16.1 mph - N/A   Clear
3:15 PM -16.6 °F -41.4 °F -23.8 °F 70% 30.24 in 10.0 mi NW 16.1 mph - N/A   Clear
3:35 PM -16.6 °F -40.6 °F -23.8 °F 70% 30.24 in 10.0 mi WNW 15.0 mph - N/A   Clear
3:55 PM -14.8 °F -39.8 °F -22.0 °F 70% 30.24 in 10.0 mi West 17.3 mph - N/A   Clear
4:15 PM -16.6 °F -41.4 °F -22.0 °F 76% 30.24 in 10.0 mi WNW 16.1 mph - N/A   Clear
4:35 PM -16.6 °F -41.4 °F -22.0 °F 76% 30.23 in 10.0 mi WNW 16.1 mph - N/A   Clear
4:55 PM -16.6 °F -37.9 °F -23.8 °F 70% 30.24 in 10.0 mi NW 11.5 mph - N/A   Clear
5:15 PM -16.6 °F -32.9 °F -23.8 °F 70% 30.24 in 10.0 mi WNW 6.9 mph - N/A   Clear
5:35 PM -16.6 °F -35.7 °F -25.6 °F 64% 30.23 in 10.0 mi WNW 9.2 mph - N/A   Clear
5:55 PM -16.6 °F -40.6 °F -23.8 °F 70% 30.24 in 10.0 mi West 15.0 mph - N/A   Clear
6:15 PM -18.4 °F -42.1 °F -23.8 °F 76% 30.24 in 10.0 mi West 13.8 mph - N/A   Clear
6:35 PM -18.4 °F -40.2 °F -25.6 °F 70% 30.24 in 10.0 mi West 11.5 mph - N/A   Clear
7:15 PM -20.2 °F -40.1 °F -27.4 °F 69% 30.23 in 10.0 mi West 9.2 mph - N/A   Clear
7:35 PM -20.2 °F -40.1 °F -27.4 °F 69% 30.23 in 10.0 mi West 9.2 mph - N/A   Clear
8:15 PM -20.2 °F -38.8 °F -27.4 °F 69% 30.22 in 10.0 mi West 8.1 mph - N/A   Clear
8:35 PM -20.2 °F -42.4 °F -27.4 °F 69% 30.21 in 10.0 mi West 11.5 mph - N/A   Clear
8:55 PM -22.0 °F -42.3 °F -27.4 °F 76% 30.21 in 10.0 mi West 9.2 mph - N/A   Clear
9:15 PM -22.0 °F -39.4 °F -29.2 °F 69% 30.20 in 10.0 mi WNW 6.9 mph - N/A   Scattered Clouds
9:35 PM -23.8 °F -39.8 °F -29.2 °F 76% 30.20 in 10.0 mi West 5.8 mph - N/A   Partly Cloudy
9:55 PM -22.0 °F -41.0 °F -29.2 °F 69% 30.20 in 10.0 mi West 8.1 mph - N/A   Clear
10:15 PM -23.8 °F -44.5 °F -29.2 °F 76% 30.19 in 10.0 mi West 9.2 mph - N/A   Clear
10:35 PM -25.6 °F -46.8 °F -29.2 °F 83% 30.18 in 10.0 mi West 9.2 mph - N/A   Clear
10:55 PM -25.6 °F -46.8 °F -29.2 °F 83% 30.18 in 10.0 mi West 9.2 mph - N/A   Clear
11:15 PM -25.6 °F -41.9 °F -29.2 °F 83% 30.17 in 10.0 mi WSW 5.8 mph - N/A   Clear
11:35 PM -23.8 °F -37.7 °F -29.2 °F 76% 30.17 in 10.0 mi WSW 4.6 mph - N/A   Clear